Williston, ND

1:43 PM CST on February 21, 2017 (GMT -0600)
Sloulin International

Weather History for KISN - August, 2014

Change the Weather History Date:

Thursday, August 21, 2014

  Actual Average Record
Temperature  
Mean Temperature 66 °F 68 °F  
Max Temperature 77 °F 83 °F 99 °F (1969)
Min Temperature 54 °F 53 °F 34 °F (1907)
Degree Days  
Heating Degree Days 0 2  
Month to date heating degree days 1 23  
Since 1 June heating degree days 128 167  
Since 1 July heating degree days 18 47  
Cooling Degree Days 1 5  
Month to date cooling degree days 168 131  
Year to date cooling degree days 381 394  
Since 1 June cooling degree days 360 381  
Growing Degree Days 16 (Base 50)    
Moisture  
Dew Point 57 °F    
Average Humidity 75    
Maximum Humidity 100    
Minimum Humidity 50    
Precipitation  
Precipitation T in 0.04 in 3.04 in (1993)
Month to date precipitation 0.58 1.00  
Year to date precipitation 6.77 10.67  
Snow  
Snow 0.00 in - - ()
Month to date snowfall 0.0  
Since 1 June snowfall 0.0  
Snow Depth 0.00 in    
Sea Level Pressure  
Sea Level Pressure 29.89 in    
Wind  
Wind Speed 6 mph (NNE)    
Max Wind Speed 16 mph    
Max Gust Speed 19 mph    
Visibility 6 miles    
Events Fog    
T = Trace of Precipitation, MM = Missing Value Source: NWS Daily Summary

Daily Weather History Graph

Daily Weather History Graph

Search for Another Location

Airport or City:

Trip Planner

Search our weather history database for the weather conditions in past years. The results will help you decide how hot, cold, wet, or windy it might be!

Date:

Astronomy

Aug. 21, 2014 Rise Set
Actual Time 6:57 AM CDT 8:57 PM CDT
Civil Twilight 6:23 AM CDT 9:30 PM CDT
Nautical Twilight 5:42 AM CDT 10:11 PM CDT
Astronomical Twilight 4:55 AM CDT 10:57 PM CDT
Moon 3:21 AM CDT 6:33 PM CDT
Length of Visible Light 15h 06m
Length of Day
13h 59m
Waning Crescent, 13% of the Moon is Illuminated
Aug 21
Waning Crescent
Aug 25
New
Sep 2
First Quarter
Sep 8
Full
Sep 15
Last Quarter

Hourly Weather History & Observations

Time (CDT) Temp. Dew Point Humidity Pressure Visibility Wind Dir Wind Speed Gust Speed Precip Events Conditions
12:52 AM 62.1 °F 60.1 °F 93% 29.78 in 9.0 mi Calm Calm - N/A   Clear
1:52 AM 60.1 °F 59.0 °F 96% 29.78 in 7.0 mi Calm Calm - N/A   Clear
2:47 AM 59.0 °F 57.9 °F 96% 29.80 in 6.0 mi East 3.5 mph - N/A   Partly Cloudy
2:52 AM 59.0 °F 57.9 °F 96% 29.79 in 6.0 mi ENE 3.5 mph - N/A   Partly Cloudy
3:16 AM 59.0 °F 57.9 °F 96% 29.80 in 3.0 mi NE 4.6 mph - N/A   Mostly Cloudy
3:19 AM 59.0 °F 57.9 °F 96% 29.80 in 2.5 mi NNE 4.6 mph - N/A   Mostly Cloudy
3:23 AM 60.1 °F 59.0 °F 96% 29.80 in 0.8 mi Calm Calm - N/A   Mostly Cloudy
3:27 AM 59.0 °F 59.0 °F 100% 29.80 in 0.2 mi Calm Calm - N/A Fog Fog
3:52 AM 57.9 °F 57.0 °F 97% 29.80 in 0.2 mi Calm Calm - N/A Fog Fog
3:57 AM 57.9 °F 57.0 °F 97% 29.81 in 0.5 mi Calm Calm - N/A Fog Fog
4:14 AM 57.0 °F 55.9 °F 96% 29.82 in 0.2 mi ESE 3.5 mph - N/A Fog Fog
4:34 AM 57.0 °F 57.0 °F 100% 29.83 in 0.2 mi Calm Calm - N/A Fog Fog
4:52 AM 57.0 °F 55.9 °F 96% 29.83 in 0.2 mi Calm Calm - N/A Fog Fog
5:29 AM 57.0 °F 55.9 °F 96% 29.84 in 0.5 mi Calm Calm - N/A Fog Fog
5:38 AM 55.9 °F 55.0 °F 97% 29.84 in 0.2 mi Calm Calm - N/A Fog Fog
5:52 AM 55.9 °F 55.0 °F 97% 29.84 in 0.5 mi Calm Calm - N/A Fog Fog
6:06 AM 55.0 °F 54.0 °F 96% 29.85 in 0.2 mi Calm Calm - N/A Fog Fog
6:15 AM 54.0 °F 54.0 °F 100% 29.85 in 0.5 mi Calm Calm - N/A Fog Fog
6:33 AM 55.0 °F 55.0 °F 100% 29.85 in 0.2 mi Calm Calm - N/A Fog Fog
6:43 AM 55.0 °F 54.0 °F 96% 29.86 in 0.8 mi Calm Calm - N/A   Mist
6:46 AM 55.9 °F 55.0 °F 97% 29.86 in 1.2 mi Calm Calm - N/A   Partly Cloudy
6:50 AM 55.4 °F 55.4 °F 100% 29.86 in 3.0 mi Calm Calm - N/A   Partly Cloudy
6:52 AM 55.0 °F 54.0 °F 96% 29.86 in 5.0 mi ESE 3.5 mph - N/A   Partly Cloudy
7:13 AM 55.9 °F 55.0 °F 97% 29.87 in 2.5 mi Calm Calm - N/A   Clear
7:22 AM 55.9 °F 55.9 °F 100% 29.87 in 3.0 mi Calm Calm - N/A   Clear
7:32 AM 55.9 °F 55.0 °F 97% 29.88 in 2.0 mi ESE 3.5 mph - N/A   Clear
7:45 AM 57.0 °F 57.0 °F 100% 29.88 in 3.0 mi ESE 3.5 mph - N/A   Clear
7:52 AM 57.9 °F 57.0 °F 97% 29.88 in 4.0 mi ESE 4.6 mph - N/A   Clear
8:52 AM 61.0 °F 59.0 °F 93% 29.89 in 7.0 mi Calm Calm - N/A   Clear
9:41 AM 66.0 °F 61.0 °F 84% 29.91 in 10.0 mi NE 5.8 mph - N/A   Mostly Cloudy
9:52 AM 64.9 °F 61.0 °F 87% 29.91 in 10.0 mi NNE 11.5 mph - N/A   Mostly Cloudy
10:18 AM 62.1 °F 59.0 °F 90% 29.93 in 10.0 mi NNW 12.7 mph - N/A   Overcast
10:34 AM 63.0 °F 59.0 °F 87% 29.93 in 10.0 mi North 9.2 mph - N/A   Overcast
10:52 AM 64.0 °F 60.1 °F 87% 29.92 in 10.0 mi North 10.4 mph - N/A   Overcast
11:13 AM 66.9 °F 60.1 °F 79% 29.93 in 10.0 mi North 11.5 mph - N/A   Overcast
11:52 AM 66.9 °F 59.0 °F 76% 29.93 in 10.0 mi North 10.4 mph - N/A   Overcast
12:07 PM 66.9 °F 59.0 °F 76% 29.94 in 10.0 mi North 12.7 mph - N/A   Overcast
12:30 PM 66.0 °F 59.0 °F 78% 29.95 in 10.0 mi NNW 10.4 mph - N/A   Overcast
12:52 PM 66.0 °F 59.0 °F 78% 29.95 in 10.0 mi NNW 8.1 mph - N/A   Overcast
1:20 PM 66.9 °F 59.0 °F 76% 29.96 in 10.0 mi North 12.7 mph - N/A   Overcast
1:52 PM 68.0 °F 59.0 °F 73% 29.95 in 10.0 mi North 9.2 mph - N/A   Overcast
2:52 PM 70.0 °F 57.9 °F 65% 29.95 in 10.0 mi NNW 8.1 mph - N/A   Overcast
3:23 PM 71.1 °F 57.0 °F 61% 29.96 in 10.0 mi North 9.2 mph - N/A   Mostly Cloudy
3:52 PM 72.0 °F 57.9 °F 61% 29.95 in 10.0 mi NNE 9.2 mph - N/A   Mostly Cloudy
4:52 PM 73.0 °F 57.0 °F 57% 29.95 in 10.0 mi NNE 6.9 mph - N/A   Overcast
5:52 PM 75.9 °F 55.9 °F 50% 29.95 in 10.0 mi North 8.1 mph - N/A   Scattered Clouds
6:52 PM 75.9 °F 55.9 °F 50% 29.95 in 10.0 mi NE 9.2 mph - N/A   Mostly Cloudy
7:52 PM 72.0 °F 57.0 °F 59% 29.97 in 10.0 mi NE 10.4 mph - N/A   Mostly Cloudy
8:52 PM 69.1 °F 57.0 °F 65% 29.98 in 10.0 mi NNE 6.9 mph - N/A   Clear
9:52 PM 66.0 °F 57.0 °F 73% 30.00 in 10.0 mi North 4.6 mph - N/A   Clear
10:52 PM 64.0 °F 57.9 °F 80% 30.01 in 10.0 mi Calm Calm - N/A   Mostly Cloudy
11:52 PM 64.0 °F 57.0 °F 78% 30.01 in 10.0 mi NNE 8.1 mph - N/A   Mostly Cloudy